Location: Newark
(52.3500°N, 175.9667°E)
Time: 20:33:36
(UTC+00:00)

Transit 4A - Pass Details

Date: 26 April 2021
Orbit: 871 x 974 km, 66.8° (Epoch: 16 May)

Event Time Altitude Azimuth Distance (km) Brightness Sun altitude
Rises 10:20:46 0° 202° (SSW) 3,617 - -19.6°
Reaches altitude 10° 10:23:21 10° 199° (SSW) 2,662 - -19.8°
Exits shadow 10:26:11 28° 190° (S) 1,690 8.8 -20.0°
Maximum altitude 10:29:25 59° 121° (ESE) 1,063 7.9 -20.2°
Drops below altitude 10° 10:35:22 10° 44° (NE) 2,606 10.5 -20.6°
Sets 10:37:52 0° 41° (NE) 3,536 11.3 -20.8°
